| time (UTC) | temp C | wind direction | speed KPH | gust KPH | rain 1hr cm | rain 24hr cm | rain mn cm | humidity % | barometer mb |
| 20260506040512 | 11 | 248 | 0.0 | 0.0 | 0.00 | 0.00 | 0.00 | 91 | 1005.2 |
| 20260506033512 | 11 | 267 | 0.0 | 0.0 | 0.00 | 0.00 | 0.00 | 91 | 1005.3 |
| 20260506023511 | 12 | 271 | 0.0 | 0.0 | 0.00 | 0.00 | 0.00 | 91 | 1006.0 |
| 20260506020510 | 12 | 238 | 0.0 | 0.0 | 0.00 | 0.00 | 0.00 | 91 | 1005.9 |
| 20260506010513 | 12 | 238 | 0.0 | 0.0 | 0.00 | 0.00 | 0.00 | 90 | 1005.9 |
| 20260506003513 | 12 | 238 | 0.0 | 0.0 | 0.00 | 0.00 | 0.00 | 90 | 1006.0 |
| 20260506000512 | 12 | 238 | 0.0 | 0.0 | 0.00 | 0.00 | 0.00 | 90 | 1006.4 |
| 20260505233511 | 12 | 230 | 0.0 | 0.0 | 0.00 | 0.00 | 0.00 | 90 | 1006.6 |
| 20260505230510 | 13 | 263 | 0.0 | 0.0 | 0.00 | 0.00 | 0.00 | 90 | 1006.7 |
| 20260505223509 | 13 | 307 | 0.0 | 0.0 | 0.00 | 0.00 | 0.00 | 90 | 1006.8 |
| 20260505220513 | 13 | 253 | 0.0 | 0.0 | 0.00 | 0.00 | 0.00 | 90 | 1006.5 |
| 20260505213512 | 13 | 264 | 0.0 | 0.0 | 0.00 | 0.28 | 0.28 | 89 | 1006.6 |
| 20260505210512 | 13 | 257 | 0.0 | 0.0 | 0.00 | 0.28 | 0.28 | 89 | 1006.5 |
| 20260505203511 | 14 | 272 | 0.0 | 0.0 | 0.03 | 0.28 | 0.28 | 88 | 1006.6 |
| 20260505200510 | 14 | 248 | 0.0 | 0.0 | 0.05 | 0.28 | 0.28 | 87 | 1006.5 |
| 20260505193510 | 14 | 241 | 0.0 | 0.0 | 0.10 | 0.25 | 0.25 | 86 | 1006.3 |
| 20260505190509 | 15 | 244 | 0.0 | 0.0 | 0.08 | 0.23 | 0.23 | 84 | 1006.2 |
| 20260505183513 | 16 | 254 | 0.0 | 0.0 | 0.03 | 0.15 | 0.15 | 84 | 1006.0 |
| 20260505180512 | 16 | 205 | 0.0 | 0.0 | 0.00 | 0.15 | 0.15 | 83 | 1005.8 |
| 20260505173512 | 16 | 205 | 0.0 | 0.0 | 0.00 | 0.15 | 0.15 | 83 | 1005.7 |
| 20260505163510 | 16 | 205 | 0.0 | 0.0 | 0.00 | 0.15 | 0.15 | 84 | 1005.9 |
| 20260505160510 | 16 | 207 | 0.0 | 0.0 | 0.00 | 0.15 | 0.15 | 84 | 1005.8 |
| 20260505150513 | 16 | 207 | 0.0 | 0.0 | 0.03 | 0.15 | 0.15 | 87 | 1006.3 |
| 20260505140512 | 16 | 207 | 0.0 | 0.0 | 0.05 | 0.13 | 0.13 | 88 | 1006.8 |
| 20260505123509 | 17 | 246 | 1.6 | 12.9 | 0.03 | 0.03 | 0.03 | 80 | 1007.5 |
| 20260505120514 | 17 | 256 | 1.6 | 11.3 | 0.00 | 0.00 | 0.00 | 77 | 1007.2 |
| 20260505113513 | 18 | 313 | 0.0 | 0.0 | 0.00 | 0.00 | 0.00 | 73 | 1007.0 |
| 20260505110512 | 18 | 257 | 0.0 | 6.4 | 0.00 | 0.00 | 0.00 | 72 | 1007.3 |
| 20260505100511 | 17 | 237 | 0.0 | 0.0 | 0.00 | 0.00 | 0.00 | 78 | 1007.5 |
| 20260505093510 | 17 | 306 | 0.0 | 0.0 | 0.00 | 0.00 | 0.00 | 74 | 1007.6 |
| 20260505090509 | 17 | 311 | 0.0 | 0.0 | 0.00 | 0.00 | 0.00 | 74 | 1008.0 |
| 20260505083513 | 16 | 305 | 1.6 | 9.7 | 0.00 | 0.00 | 0.00 | 76 | 1008.1 |
| 20260505080512 | 15 | 236 | 0.0 | 0.0 | 0.00 | 0.00 | 0.00 | 80 | 1008.3 |
| 20260505073511 | 15 | 300 | 0.0 | 0.0 | 0.00 | 0.00 | 0.00 | 80 | 1008.4 |
| 20260505070510 | 15 | 250 | 0.0 | 8.0 | 0.00 | 0.00 | 0.00 | 80 | 1008.6 |
| 20260505063510 | 14 | 239 | 0.0 | 0.0 | 0.00 | 0.00 | 0.00 | 81 | 1008.5 |
| 20260505060509 | 13 | 239 | 0.0 | 0.0 | 0.00 | 0.00 | 0.00 | 81 | 1008.7 |
| 20260505053513 | 13 | 238 | 0.0 | 0.0 | 0.00 | 0.00 | 0.00 | 82 | 1008.8 |
| 20260505050512 | 13 | 247 | 0.0 | 0.0 | 0.00 | 0.00 | 0.00 | 82 | 1008.6 |